This demonstration page uses our WeatherBlox Daily Observations layout. Learn more.

Left ArrowRight Arrow

Hourly Observations for October 11, 2021

Temp ( °F °C ) Dew Point ( °F °C ) Humidity (%) Winds ( mph kmh ) Pressure ( in mb ) Visibility ( mi km ) Precip ( " mm )
12:15 am 00:15 Clear 47 8.5 40 4.3 75 75 NNW 3 6 29.77 1008 10 16 N/A
12:35 am 00:35 Clear 45 7.3 39 4.1 80 80 N N/A 29.78 1008 10 16 N/A
12:55 am 00:55 Clear 46 7.8 39 4 77 77 N N/A 29.78 1009 10 16 N/A
1:15 am 01:15 Clear 46 7.6 39 3.8 77 77 N N/A 29.78 1009 10 16 N/A
1:35 am 01:35 Clear 44 6.4 39 3.7 83 83 N N/A 29.80 1009 10 16 N/A
1:55 am 01:55 Clear 44 6.8 40 4.2 84 84 N N/A 29.79 1009 10 16 N/A
2:15 am 02:15 Clear 46 7.6 40 4.4 80 80 WNW 8 13 29.80 1009 10 16 N/A
2:35 am 02:35 Clear 46 7.5 39 4 79 79 WNW 3 6 29.81 1009 10 16 N/A
2:55 am 02:55 Clear 44 6.7 39 4 83 83 N N/A 29.81 1010 10 16 N/A
3:15 am 03:15 Clear 44 6.6 39 4.1 84 84 NW 5 7 29.80 1009 10 16 N/A
3:35 am 03:35 Clear 46 7.5 39 4.1 79 79 NW 3 6 29.78 1009 10 16 N/A
3:55 am 03:55 Clear 45 7 39 3.8 80 80 N N/A 29.79 1009 10 16 N/A
4:15 am 04:15 Clear 44 6.8 40 4.2 84 84 W 3 6 29.79 1009 10 16 N/A
4:35 am 04:35 Clear 45 7 40 4.2 83 83 WNW 7 11 29.79 1009 10 16 N/A
4:55 am 04:55 Clear 44 6.7 39 4.1 84 84 WNW 6 9 29.79 1009 10 16 N/A
5:15 am 05:15 Clear 43 6 39 4 87 87 WNW 3 6 29.80 1009 10 16 N/A
5:35 am 05:35 Clear 43 6.3 39 4 85 85 WNW 5 7 29.80 1009 10 16 N/A
5:55 am 05:55 Clear 43 6.3 39 3.8 84 84 WNW 5 7 29.80 1009 10 16 N/A
6:15 am 06:15 Clear 42 5.8 38 3.6 86 86 WNW 3 6 29.81 1009 10 16 N/A
6:35 am 06:35 Clear 44 6.5 39 3.7 83 83 WNW 3 6 29.81 1010 10 16 N/A
6:55 am 06:55 Clear 43 5.9 38 3.5 85 85 N N/A 29.82 1010 10 16 N/A
7:15 am 07:15 Clear 42 5.4 38 3.4 87 87 N N/A 29.82 1010 10 16 N/A
7:35 am 07:35 Clear 40 4.6 37 2.9 89 89 N N/A 29.83 1010 10 16 N/A
7:55 am 07:55 Sunny 42 5.3 39 3.9 91 91 N N/A 29.82 1010 10 16 N/A
8:15 am 08:15 Sunny 42 5.4 39 3.8 90 90 N N/A 29.83 1010 7 11 N/A
8:30 am 08:30 Sunny with Mist and Fog 44 6.4 40 4.7 89 89 N N/A 29.82 1010 3 5 N/A
8:55 am 08:55 Hazy 48 9.1 43 5.9 81 81 NW 6 9 29.81 1010 5 8 N/A
9:15 am 09:15 Mostly Cloudy 53 11.4 45 7.3 76 76 NW 3 6 29.79 1009 7 11 N/A
9:35 am 09:35 Mostly Cloudy 55 12.7 46 7.5 71 71 NW 3 6 29.78 1008 7 11 N/A
9:55 am 09:55 Partly Cloudy 58 14.2 46 7.7 65 65 N N/A 29.77 1008 7 11 N/A
10:15 am 10:15 Mostly Cloudy 59 15.2 46 7.5 60 60 WNW 6 9 29.76 1008 7 11 N/A
10:35 am 10:35 Hazy 62 16.7 45 7 53 53 NW 3 6 29.75 1007 5 8 N/A
10:55 am 10:55 Partly Cloudy 65 18.1 44 6.5 47 47 N N/A 29.72 1007 7 11 N/A
11:15 am 11:15 Sunny 66 19 41 5.2 40 40 WNW 3 6 29.72 1006 10 16 N/A
11:35 am 11:35 Sunny 67 19.6 41 5.1 39 39 NNE 3 6 29.71 1006 10 16 N/A
11:55 am 11:55 Sunny 68 19.8 41 5 38 38 NNE 5 7 29.71 1006 10 16 N/A
12:15 pm 12:15 Sunny 68 20.2 42 5.6 39 39 NNE 3 6 29.71 1006 10 16 N/A
12:35 pm 12:35 Sunny 68 20.1 40 4.6 36 36 N N/A 29.71 1006 10 16 N/A
12:55 pm 12:55 Sunny 69 20.6 40 4.7 35 35 N N/A 29.70 1006 10 16 N/A
1:15 pm 13:15 Sunny 69 20.8 40 4.4 34 34 N N/A 29.70 1006 10 16 N/A
1:35 pm 13:35 Sunny 70 21.1 40 4.5 34 34 N N/A 29.69 1005 7 11 N/A
1:55 pm 13:55 Sunny 71 21.5 41 5 34 34 NE 5 7 29.69 1005 10 16 N/A
2:15 pm 14:15 Sunny 71 21.7 40 4.5 33 33 WSW 3 6 29.68 1005 10 16 N/A
2:35 pm 14:35 Partly Cloudy 72 22.1 40 4.3 31 31 S 3 6 29.67 1005 10 16 N/A
2:55 pm 14:55 Mostly Cloudy 73 22.6 40 4.6 31 31 N N/A 29.67 1005 10 16 N/A
3:15 pm 15:15 Mostly Cloudy 73 22.6 40 4.3 30 30 N N/A 29.67 1005 10 16 N/A
3:35 pm 15:35 Hazy 72 22.2 38 3.6 30 30 N N/A 29.67 1005 5 8 N/A
3:55 pm 15:55 Partly Cloudy 72 22.2 40 4.2 31 31 E 6 9 29.67 1005 7 11 N/A
4:15 pm 16:15 Partly Cloudy 71 21.9 39 4.1 31 31 NE 3 6 29.67 1005 7 11 N/A
4:35 pm 16:35 Partly Cloudy 72 22.2 39 3.7 30 30 N N/A 29.67 1005 7 11 N/A
4:55 pm 16:55 Sunny 72 22.3 39 3.8 30 30 NNE 3 6 29.67 1005 7 11 N/A
5:15 pm 17:15 Sunny 72 22.1 40 4.7 32 32 E 6 9 29.68 1005 10 16 N/A
5:35 pm 17:35 Partly Cloudy 72 22.1 40 4.4 32 32 ENE 8 13 29.68 1005 10 16 N/A
5:55 pm 17:55 Partly Cloudy 70 21.3 41 5.2 35 35 ENE 6 9 29.69 1005 10 16 N/A
6:15 pm 18:15 Sunny 69 20.8 41 5.1 36 36 ENE 5 7 29.70 1006 10 16 N/A
6:35 pm 18:35 Sunny 68 20 40 4.7 37 37 E 5 7 29.71 1006 10 16 N/A
6:55 pm 18:55 Sunny 64 17.9 42 5.3 44 44 E 6 9 29.73 1007 10 16 N/A
7:15 pm 19:15 Clear 60 15.8 42 5.3 50 50 ENE 5 7 29.75 1008 10 16 N/A
7:35 pm 19:35 Clear 58 14.4 42 5.5 55 55 ENE 8 13 29.77 1008 10 16 N/A
7:55 pm 19:55 Clear 59 15.2 41 5.1 51 51 E 8 13 29.77 1008 10 16 N/A
8:15 pm 20:15 Clear 58 14.2 41 5.2 55 55 ENE 8 13 29.79 1009 10 16 N/A
8:35 pm 20:35 Clear 58 14.2 41 5 54 54 E 9 15 29.80 1009 10 16 N/A
8:55 pm 20:55 Clear 58 14.4 41 5 53 53 E 9 15 29.79 1009 10 16 N/A
9:15 pm 21:15 Clear 56 13.5 41 5 57 57 E 9 15 29.80 1009 10 16 N/A
9:35 pm 21:35 Clear 54 12.1 41 5 62 62 ENE 6 9 29.82 1010 10 16 N/A
9:55 pm 21:55 Clear 54 12.4 41 5 61 61 ESE 6 9 29.83 1010 10 16 N/A
10:15 pm 22:15 Clear 53 11.5 41 5 65 65 ESE 6 9 29.85 1011 7 11 N/A
10:35 pm 22:35 Clear 52 11 41 4.8 66 66 ESE 6 9 29.85 1011 7 11 N/A
10:55 pm 22:55 Clear 52 11.3 41 4.8 65 65 E 8 13 29.85 1011 10 16 N/A
11:15 pm 23:15 Clear 54 12.1 40 4.5 60 60 E 7 11 29.85 1011 10 16 N/A
11:35 pm 23:35 Clear 52 11 40 4.4 64 64 E 8 13 29.86 1011 10 16 N/A
11:55 pm 23:55 Clear 54 12 40 4.5 60 60 E 9 15 29.87 1011 10 16 N/A

Powered by AerisWeather